Location: Newark
(40.8000°N, 14.5000°E)
Time: 03:40:30
(UTC+00:00)

Falcon 9 debris - Visible Passes

Search period start: 19 July 2019 00:00
Search period end: 29 July 2019 00:00
Orbit: 431 x 439 km, 53.0° (Epoch: 18 July)

Date Brightness Start Highest point End Pass type
(mag) Time Alt. Az. Time Alt. Az. Time Alt. Az.
19 Jul 5.3 01:19:49 17° NW 01:21:06 20° NNW 01:23:46 10° NNE visible
19 Jul 6.1 02:58:11 10° NNW 02:59:12 11° N 03:00:13 10° NNE visible
20 Jul 5.1 00:38:50 26° NNW 00:38:50 26° NNW 00:41:40 10° NNE visible
20 Jul 6.1 02:15:26 10° NNW 02:16:41 12° N 02:17:57 10° NNE visible
20 Jul 5.5 23:57:50 23° NNE 23:57:50 23° NNE 23:59:33 10° NE visible
21 Jul 6.1 01:32:36 10° NW 01:34:11 13° N 01:35:48 10° NNE visible
21 Jul 6.2 03:10:56 10° NNW 03:12:27 12° N 03:13:58 10° NE visible
21 Jul 6.1 23:16:46 14° NE 23:16:46 14° NE 23:17:23 10° NE visible
22 Jul 6.0 00:50:01 11° NW 00:51:42 14° NNW 00:53:41 10° NNE visible
22 Jul 6.3 02:28:45 10° NNW 02:29:56 11° N 02:31:08 10° NNE visible
23 Jul 5.8 00:08:55 17° NNW 00:09:14 17° NNW 00:11:36 10° NNE visible
23 Jul 6.4 01:46:26 10° NNW 01:47:26 11° N 01:48:25 10° NNE visible
23 Jul 5.9 23:27:45 19° N 23:27:45 19° N 23:29:30 10° NNE visible
24 Jul 6.4 01:03:52 10° NNW 01:04:54 11° N 01:05:56 10° NNE visible
24 Jul 6.1 02:40:51 10° NNW 02:43:06 16° NNE 02:45:21 10° ENE visible
24 Jul 6.1 22:46:29 15° NNE 22:46:29 15° NNE 22:47:24 10° NNE visible
25 Jul 6.4 00:21:05 10° NNW 00:22:22 12° N 00:23:39 10° NNE visible
25 Jul 6.3 01:58:45 10° NNW 02:00:37 14° NNE 02:02:30 10° NE visible
25 Jul 6.2 22:05:02 11° NE 22:05:02 11° NE 22:05:15 10° NE visible
25 Jul 6.4 23:38:16 10° NW 23:39:51 13° NNW 23:41:29 10° NNE visible
26 Jul 6.4 01:16:37 10° NNW 01:18:07 12° N 01:19:37 10° NE visible
26 Jul 5.1 02:52:51 10° NW 02:56:01 32° NNE 02:59:08 10° E visible
26 Jul 6.2 22:56:17 13° NW 22:57:22 15° NNW 22:59:22 10° NNE visible
27 Jul 6.5 00:34:25 10° NNW 00:35:36 11° N 00:36:47 10° NNE visible
27 Jul 5.6 02:10:44 10° NNW 02:13:37 24° NNE 02:16:30 10° E visible
27 Jul 5.1 18:59:46 10° SE 19:00:50 11° SE 19:01:53 10° ESE visible
27 Jul 3.1 20:33:56 10° SW 20:37:23 79° NW 20:40:51 10° NE visible
27 Jul 6.1 22:12:30 10° WNW 22:14:53 17° NNW 22:17:16 10° NNE visible
27 Jul 6.6 23:52:04 10° NNW 23:53:04 11° N 23:54:04 10° NNE visible
28 Jul 6.0 01:28:37 10° NNW 01:31:12 19° NNE 01:33:46 10° ENE visible
28 Jul 3.0 03:05:08 10° NW 03:08:35 79° SW 03:12:00 10° SE visible
28 Jul 3.0 19:51:42 10° SW 19:55:07 66° SE 19:58:34 10° NE visible
28 Jul 5.8 21:29:43 10° WNW 21:32:26 21° NNW 21:35:10 10° NNE visible
28 Jul 6.7 23:09:29 10° NNW 23:10:31 11° N 23:11:35 10° NNE visible
